{"data":{"norad_id":68341,"intl_designator":"2026-059W","name":"STARLINK-37181","alt_names":[],"object_type":"PAYLOAD","status":"ACTIVE","operator":null,"country":"US","launch_date":"2026-03-22","launch_site_code":"AFETR","launch_vehicle":null,"mission":null,"orbit_class":"UNKNOWN","rcs_meters":null,"size_class":null,"mass_kg":null,"dimensions":null,"purposes":["comms"],"wikipedia_slug":null,"has_3d_model":false,"image_url":null,"decayed_at":null,"tle_current":{"epoch":"2026-09-20T00:21:00.354816Z","epoch_age_seconds":89970,"freshness":"FRESH","line1":"1 68341U 26059W   26263.01458744  .00014270  00000+0  43260-3 0  9997","line2":"2 68341  53.1574 158.0998 0001378  32.9771 327.1317 15.34404493 28031","mean_motion":15.34404493,"eccentricity":0.0001378,"inclination_deg":53.1574,"raan_deg":158.0998,"arg_perigee_deg":32.9771,"mean_anomaly_deg":327.1317,"bstar":0.0004326,"rev_number":2803,"period_min":93.847483278974,"perigee_km":461.74722015193,"apogee_km":463.63255204174,"semimajor_km":6840.8268860968,"source":"CELESTRAK","updated_at":"2026-09-20T09:00:43.888771Z"}}}